| time (UTC) | temp F | wind direction | speed MPH | gust MPH | rain 1hr in | rain 24hr in | rain mn in | humidity % | barometer mb |
| 20260902030012 | 58 | 46 | 14.0 | 17.0 | 0.01 | 0.10 | 0.10 | 65 | 1019.3 |
| 20260902024530 | 60 | 117 | 4.0 | 7.0 | 0.00 | 0.09 | 0.09 | 64 | 1020.2 |
| 20260902023029 | 63 | 53 | 5.0 | 8.0 | 0.00 | 0.09 | 0.09 | 46 | 1019.2 |
| 20260902021521 | 65 | 256 | 2.0 | 18.0 | 0.00 | 0.09 | 0.09 | 42 | 1019.7 |
| 20260902020003 | 68 | 116 | 4.0 | 11.0 | 0.00 | 0.09 | 0.09 | 41 | 1019.2 |
| 20260902014512 | 69 | 146 | 0.0 | 2.0 | 0.00 | 0.09 | 0.09 | 51 | 1018.5 |
| 20260902013014 | 71 | 182 | 0.0 | 1.0 | 0.00 | 0.09 | 0.09 | 46 | 1018.3 |
| 20260902011527 | 72 | 170 | 0.0 | 1.0 | 0.00 | 0.09 | 0.09 | 44 | 1018.3 |
| 20260902010026 | 70 | 139 | 0.0 | 5.0 | 0.00 | 0.09 | 0.09 | 46 | 1018.4 |
| 20260902004517 | 71 | 148 | 0.0 | 3.0 | 0.00 | 0.09 | 0.09 | 45 | 1018.3 |
| 20260902003011 | 72 | 122 | 1.0 | 2.0 | 0.00 | 0.09 | 0.09 | 45 | 1018.4 |
| 20260902001521 | 74 | 141 | 2.0 | 5.0 | 0.00 | 0.09 | 0.09 | 43 | 1018.5 |
| 20260902000026 | 73 | 270 | 2.0 | 6.0 | 0.00 | 0.09 | 0.09 | 43 | 1018.7 |
| 20260901234529 | 72 | 153 | 0.0 | 4.0 | 0.00 | 0.09 | 0.09 | 42 | 1018.6 |
| 20260901233008 | 71 | 188 | 0.0 | 2.0 | 0.00 | 0.09 | 0.09 | 46 | 1018.7 |
| 20260901231526 | 71 | 202 | 0.0 | 1.0 | 0.00 | 0.09 | 0.09 | 44 | 1018.8 |
| 20260901230027 | 70 | 265 | 2.0 | 4.0 | 0.00 | 0.09 | 0.09 | 48 | 1019.0 |
| 20260901224526 | 71 | 214 | 0.0 | 5.0 | 0.00 | 0.09 | 0.09 | 46 | 1018.9 |
| 20260901223032 | 70 | 238 | 1.0 | 3.0 | 0.00 | 0.09 | 0.09 | 47 | 1019.2 |
| 20260901221515 | 70 | 218 | 2.0 | 4.0 | 0.00 | 0.09 | 0.09 | 47 | 1019.3 |
| 20260901220020 | 69 | 269 | 1.0 | 5.0 | 0.00 | 0.09 | 0.09 | 46 | 1019.4 |
| 20260901214528 | 70 | 338 | 2.0 | 5.0 | 0.00 | 0.09 | 0.09 | 45 | 1019.7 |
| 20260901213028 | 72 | 200 | 2.0 | 4.0 | 0.00 | 0.09 | 0.09 | 44 | 1019.9 |
| 20260901211530 | 69 | 186 | 2.0 | 5.0 | 0.00 | 0.09 | 0.09 | 48 | 1020.2 |
| 20260901210012 | 70 | 92 | 1.0 | 3.0 | 0.00 | 0.09 | 0.09 | 46 | 1020.5 |
| 20260901204532 | 70 | 99 | 1.0 | 8.0 | 0.00 | 0.09 | 0.09 | 46 | 1020.7 |
| 20260901203033 | 69 | 252 | 4.0 | 5.0 | 0.00 | 0.09 | 0.09 | 47 | 1020.8 |
| 20260901201529 | 69 | 182 | 2.0 | 10.0 | 0.00 | 0.09 | 0.09 | 46 | 1021.1 |
| 20260901200039 | 68 | 249 | 3.0 | 8.0 | 0.00 | 0.09 | 0.09 | 53 | 1021.4 |
| 20260901194524 | 68 | 229 | 2.0 | 8.0 | 0.00 | 0.09 | 0.09 | 56 | 1021.5 |
| 20260901193024 | 67 | 133 | 5.0 | 12.0 | 0.00 | 0.09 | 0.09 | 55 | 1021.6 |
| 20260901191547 | 66 | 195 | 2.0 | 10.0 | 0.00 | 0.09 | 0.09 | 56 | 1021.8 |
| 20260901190035 | 66 | 111 | 2.0 | 9.0 | 0.00 | 0.09 | 0.09 | 60 | 1021.8 |
| 20260901184532 | 65 | 186 | 1.0 | 15.0 | 0.00 | 0.09 | 0.09 | 58 | 1021.7 |
| 20260901183029 | 64 | 82 | 3.0 | 6.0 | 0.00 | 0.09 | 0.09 | 61 | 1021.8 |
| 20260901181504 | 64 | 73 | 4.0 | 8.0 | 0.00 | 0.09 | 0.09 | 63 | 1022.3 |
| 20260901180030 | 62 | 167 | 3.0 | 8.0 | 0.00 | 0.09 | 0.09 | 71 | 1022.2 |
| 20260901174523 | 60 | 259 | 2.0 | 7.0 | 0.00 | 0.09 | 0.09 | 71 | 1022.3 |
| 20260901173031 | 60 | 176 | 3.0 | 9.0 | 0.00 | 0.09 | 0.09 | 74 | 1022.4 |
| 20260901171523 | 59 | 169 | 4.0 | 8.0 | 0.00 | 0.09 | 0.09 | 78 | 1022.6 |
| 20260901170013 | 58 | 167 | 4.0 | 9.0 | 0.00 | 0.09 | 0.09 | 82 | 1022.7 |
| 20260901164528 | 57 | 170 | 4.0 | 8.0 | 0.00 | 0.09 | 0.09 | 85 | 1022.6 |
| 20260901163012 | 57 | 180 | 2.0 | 5.0 | 0.00 | 0.09 | 0.09 | 88 | 1022.4 |
| 20260901161546 | 57 | 148 | 0.0 | 5.0 | 0.00 | 0.09 | 0.09 | 86 | 1022.3 |
| 20260901160027 | 56 | 163 | 1.0 | 4.0 | 0.02 | 0.09 | 0.09 | 86 | 1022.3 |
| 20260901154505 | 56 | 142 | 0.0 | 0.0 | 0.03 | 0.09 | 0.09 | 85 | 1022.4 |
| 20260901153009 | 54 | 30 | 0.0 | 0.0 | 0.03 | 0.09 | 0.09 | 88 | 1022.3 |
| 20260901151518 | 54 | 250 | 0.0 | 0.0 | 0.03 | 0.09 | 0.09 | 89 | 1022.6 |
| 20260901150036 | 54 | 231 | 0.0 | 0.0 | 0.01 | 0.07 | 0.07 | 89 | 1022.5 |
| 20260901144536 | 54 | 216 | 0.0 | 0.0 | 0.01 | 0.06 | 0.06 | 89 | 1022.5 |
| 20260901143013 | 54 | 255 | 0.0 | 0.0 | 0.01 | 0.06 | 0.06 | 87 | 1022.3 |
| 20260901141515 | 54 | 276 | 0.0 | 0.0 | 0.01 | 0.06 | 0.06 | 88 | 1022.3 |
| 20260901140016 | 54 | 280 | 0.0 | 0.0 | 0.01 | 0.06 | 0.06 | 90 | 1022.1 |
| 20260901134531 | 53 | 35 | 0.0 | 1.0 | 0.02 | 0.05 | 0.05 | 90 | 1021.9 |
| 20260901133029 | 53 | 353 | 0.0 | 1.0 | 0.03 | 0.05 | 0.05 | 90 | 1022.1 |
| 20260901131510 | 54 | 4 | 0.0 | 1.0 | 0.03 | 0.05 | 0.05 | 90 | 1021.9 |
| 20260901130029 | 54 | 34 | 2.0 | 4.0 | 0.04 | 0.05 | 0.05 | 87 | 1021.9 |
| 20260901124526 | 54 | 59 | 1.0 | 2.0 | 0.02 | 0.03 | 0.03 | 85 | 1021.8 |
| 20260901123027 | 54 | 55 | 1.0 | 3.0 | 0.01 | 0.02 | 0.02 | 87 | 1021.9 |
| 20260901121536 | 54 | 240 | 0.0 | 0.0 | 0.01 | 0.02 | 0.02 | 88 | 1021.8 |
| 20260901120010 | 54 | 276 | 0.0 | 2.0 | 0.00 | 0.01 | 0.01 | 88 | 1021.8 |
| 20260901114515 | 54 | 332 | 0.0 | 0.0 | 0.00 | 0.01 | 0.01 | 87 | 1021.5 |
| 20260901113024 | 55 | 255 | 0.0 | 1.0 | 0.00 | 0.01 | 0.01 | 86 | 1021.6 |
| 20260901111530 | 55 | 235 | 0.0 | 1.0 | 0.00 | 0.01 | 0.01 | 85 | 1021.5 |
| 20260901110031 | 55 | 187 | 0.0 | 1.0 | 0.00 | 0.01 | 0.01 | 83 | 1021.1 |
| 20260901104525 | 56 | 135 | 0.0 | 3.0 | 0.00 | 0.01 | 0.01 | 81 | 1021.1 |
| 20260901103027 | 57 | 51 | 0.0 | 5.0 | 0.00 | 0.01 | 0.01 | 74 | 1021.2 |
| 20260901101531 | 57 | 41 | 5.0 | 5.0 | 0.01 | 0.01 | 0.01 | 75 | 1021.2 |
| 20260901100035 | 57 | 141 | 0.0 | 0.0 | 0.01 | 0.01 | 0.01 | 79 | 1021.4 |
| 20260901094538 | 57 | 41 | 0.0 | 4.0 | 0.01 | 0.01 | 0.01 | 77 | 1021.4 |
| 20260901093014 | 57 | 11 | 3.0 | 7.0 | 0.01 | 0.01 | 0.01 | 76 | 1021.4 |
| 20260901091522 | 58 | 345 | 1.0 | 2.0 | 0.00 | 0.00 | 0.00 | 72 | 1021.7 |
| 20260901090031 | 59 | 32 | 4.0 | 7.0 | 0.00 | 0.00 | 0.00 | 68 | 1021.7 |
| 20260901084535 | 59 | 18 | 4.0 | 8.0 | 0.00 | 0.00 | 0.00 | 66 | 1021.5 |
| 20260901083034 | 61 | 34 | 2.0 | 6.0 | 0.00 | 0.00 | 0.00 | 58 | 1021.9 |
| 20260901081517 | 63 | 100 | 0.0 | 1.0 | 0.00 | 0.00 | 0.00 | 53 | 1021.9 |
| 20260901080032 | 63 | 109 | 2.0 | 4.0 | 0.00 | 0.00 | 0.00 | 50 | 1021.7 |
| 20260901074529 | 63 | 191 | 0.0 | 2.0 | 0.00 | 0.00 | 0.00 | 49 | 1021.7 |
| 20260901073010 | 62 | 37 | 0.0 | 4.0 | 0.00 | 0.00 | 0.00 | 50 | 1021.6 |
| 20260901071524 | 62 | 91 | 0.0 | 4.0 | 0.00 | 0.00 | 0.00 | 51 | 1021.5 |
| 20260901070018 | 61 | 104 | 3.0 | 4.0 | 0.00 | 0.00 | 0.00 | 54 | 1021.6 |
| 20260901064510 | 62 | 165 | 1.0 | 3.0 | 0.00 | 0.00 | 0.00 | 52 | 1021.5 |
| 20260901063032 | 64 | 152 | 0.0 | 6.0 | 0.00 | 0.00 | 0.00 | 48 | 1021.3 |
| 20260901061509 | 61 | 139 | 0.0 | 1.0 | 0.00 | 0.00 | 0.00 | 51 | 1021.3 |
| 20260901060020 | 62 | 155 | 1.0 | 2.0 | 0.00 | 0.00 | 0.00 | 51 | 1021.3 |
| 20260901054534 | 63 | 198 | 0.0 | 0.0 | 0.00 | 0.00 | 0.00 | 49 | 1021.0 |
| 20260901053006 | 64 | 124 | 0.0 | 3.0 | 0.00 | 0.00 | 0.00 | 48 | 1021.1 |
| 20260901051508 | 66 | 87 | 1.0 | 2.0 | 0.00 | 0.00 | 0.00 | 42 | 1021.1 |
| 20260901050025 | 67 | 49 | 0.0 | 3.0 | 0.00 | 0.00 | 0.00 | 40 | 1021.3 |
| 20260901044546 | 67 | 39 | 1.0 | 3.0 | 0.00 | 0.00 | 0.00 | 40 | 1021.2 |
| 20260901043030 | 67 | 100 | 1.0 | 3.0 | 0.00 | 0.00 | 0.00 | 39 | 1021.3 |
| 20260901041526 | 67 | 98 | 0.0 | 3.0 | 0.00 | 0.00 | 0.00 | 39 | 1021.3 |
| 20260901040018 | 67 | 139 | 1.0 | 3.0 | 0.00 | 0.00 | 0.00 | 39 | 1021.3 |
| 20260901034530 | 67 | 230 | 2.0 | 6.0 | 0.00 | 0.00 | 0.00 | 38 | 1021.3 |
| 20260901033047 | 66 | 52 | 3.0 | 5.0 | 0.00 | 0.00 | 0.00 | 43 | 1021.1 |
| 20260901031534 | 67 | 237 | 0.0 | 2.0 | 0.00 | 0.00 | 0.00 | 45 | 1020.9 |